EHI
3 5 7 5 2 0 0 0 0 0 0 0 0 0 0 0 0 0 0 0 0 0 0 0 0 0 0 0 0 0 0 0 0 0 0 0 0 0 0 0 0 0 0
5 6 7 5 2 1 0 0 0 0 0 0 0 0 0 0 0 0 0 0 0 0 0 0 0 0 0 0 0 0 0 0 0 0 0 0 0 0 0 0 0 0 0
7 8 7 5 2 1 0 0 0 0 0 0 0 0 0 0 0 0 0 0 0 0 0 0 0 0 0 0 0 0 0 0 0 0 0 0 0 0 0 0 0 0 0
8 8 6 4 2 1 0 0 0 0 0 0 0 0 0 0 0 0 0 0 0 0 0 0 0 0 0 0 0 0 0 0 0 0 0 0 0 0 0 0 0 0 0
6 7 6 4 2 1 0 0 0 0 0 0 0 0 0 0 0 0 0 0 0 0 0 0 0 0 0 0 0 0 0 0 0 0 0 0 0 0 0 0 0 0 0
5 6 5 4 2 1 0 0 0 0 0 0 0 0 0 0 0 0 0 0 0 0 0 0 0 0 0 0 0 0 0 0 0 0 0 0 0 0 0 0 0 0 0
3 4 4 3 1 0 0 0 0 0 0 0 0 0 0 0 0 0 0 0 0 0 0 0 0 0 0 0 0 0 0 0 0 0 0 0 0 0 0 0 0 0 0
1 2 3 2 1 0 0 0 0 0 0 0 0 0 0 0 0 0 0 0 0 0 0 0 0 0 0 0 0 0 0 0 0 0 0 0 0 0 0 0 0 0 0
0 1 3 2 1 0 0 0 0 0 0 0 0 0 0 0 0 0 0 0 0 0 0 0 0 0 0 0 0 0 0 0 0 0 0 0 0 0 0 0 0 0 0
0 1 2 2 1 0 0 0 0 0 0 0 0 0 0 0 0 0 0 0 0 0 0 0 0 0 0 0 0 0 0 0 0 0 0 0 0 0 0 0 0 0 0
0 1 2 2 1 0 0 0 0 0 0 0 0 0 0 0 0 0 0 0 0 0 0 0 0 0 0 0 0 0 0 0 0 0 0 0 0 0 0 0 0 0 0
0 0 1 2 1 0 0 0 0 0 0 0 0 0 0 0 0 0 0 0 0 0 0 0 0 0 0 0 0 0 0 0 0 0 0 0 0 0 0 0 0 0 0
0 0 1 2 1 0 0 0 0 0 0 0 0 0 0 0 0 0 0 0 0 0 0 0 0 0 0 0 0 0 0 0 0 0 0 0 0 0 0 0 0 0 0
0 0 2 2 1 0 0 0 0 0 0 0 0 0 0 0 0 0 0 0 0 0 0 0 0 0 0 0 0 0 0 0 0 0 0 0 0 0 0 0 0 0 0
0 0 2 2 1 0 0 0 0 0 0 0 0 0 0 0 0 0 0 0 0 0 0 0 0 0 0 0 0 0 0 0 0 0 0 0 0 0 0 0 0 0 0
0 0 2 2 1 0 0 0 0 0 0 0 0 0 0 0 0 0 0 0 0 0 0 0 0 0 0 0 0 0 0 0 0 0 0 0 0 0 0 0 0 0 0
0 0 2 2 1 0 0 0 0 0 0 0 0 0 0 0 0 0 0 0 0 0 0 0 0 0 0 0 0 0 0 0 0 0 0 0 0 0 0 0 0 0 0
0 1 2 2 1 0 0 0 0 0 0 0 0 0 0 0 0 0 0 0 0 0 0 0 0 0 0 0 0 0 0 0 0 0 0 0 0 0 0 0 0 0 0
0 1 2 2 1 0 0 0 0 0 0 0 0 0 0 0 0 0 0 0 0 0 0 0 0 0 0 0 0 0 0 0 0 0 0 0 0 0 0 0 0 0 0
0 1 1 1 0 0 0 0 0 0 0 0 0 0 0 0 0 0 0 0 0 0 0 0 0 0 0 0 0 0 0 0 0 0 0 0 0 0 0 0 0 0 0
0 0 0 0 0 0 0 0 0 0 0 0 0 0 0 0 0 0 0 0 0 0 0 0 0 0 0 0 0 0 0 0 0 0 0 0 0 0 0 0 0 0 0
0 0 0 0 0 0 0 0 0 0 0 0 0 0 0 0 0 0 0 0 0 0 0 0 0 0 0 0 0 0 0 0 0 0 0 0 0 0 0 0 0 0 0
0 0 0 0 0 0 0 0 0 0 0 0 0 0 0 0 0 0 0 0 0 0 0 0 0 0 0 0 0 0 0 0 0 0 0 0 0 0 0 0 0 0 0
0 0 0 0 0 0 0 0 0 0 0 0 0 0 0 0 0 0 0 0 0 0 0 0 0 0 0 0 0 0 0 0 0 0 0 0 0 0 0 0 0 0 0
0 0 0 0 0 0 0 0 0 0 0 0 0 0 0 0 0 0 0 0 0 0 0 0 0 0 0 0 0 0 0 0 0 0 0 0 0 0 0 0 0 0 0
0 0 0 0 0 0 0 0 0 0 0 0 0 0 0 0 0 0 0 0 0 0 0 0 0 0 0 0 0 0 0 0 0 0 0 0 0 0 0 0 0 0 0
Wind_Speed
9 9 8 7 7 7 7 6 5 6 6 6 5 5 4 5 6 6 4 8 8 9 9 8 7 7 7 6 6 6 6 6 6 6 6 7 7 8 8 9 9 10 10
10 9 9 8 7 7 7 6 6 6 5 5 5 4 4 5 6 7 5 5 7 8 8 7 7 6 6 5 5 5 4 4 4 4 5 5 6 7 7 8 9 10 10
11 10 9 9 8 8 8 6 6 5 5 4 4 4 4 4 6 6 6 4 4 5 6 6 6 5 5 4 4 3 3 2 3 3 4 5 6 6 7 8 9 9 10
13 10 9 8 9 8 7 6 6 5 5 4 4 3 3 3 5 5 5 5 4 3 4 5 5 5 4 3 2 2 1 1 2 3 4 5 6 7 8 8 9 10 11
14 11 9 9 10 7 6 7 6 5 6 5 4 3 3 3 3 4 4 5 5 4 4 5 5 4 4 3 2 1 1 1 2 3 5 6 6 7 8 9 10 11 11
13 12 10 11 10 8 7 7 7 6 5 5 5 4 3 3 3 3 3 4 4 5 5 4 3 3 4 4 3 2 3 3 4 4 5 6 7 8 9 10 10 11 11
13 12 10 12 10 9 9 8 6 8 6 5 5 3 2 1 2 2 3 3 3 4 4 4 3 3 2 4 3 4 4 5 5 5 6 7 8 9 10 10 11 11 12
13 12 13 11 11 9 10 9 8 6 5 6 6 5 2 0 2 2 2 3 3 3 4 4 4 3 3 2 2 4 5 6 6 6 7 8 9 9 10 11 11 12 13
13 12 14 13 12 11 10 10 9 8 7 6 6 5 5 4 2 2 3 3 3 3 3 3 4 4 4 3 2 3 4 5 7 7 7 8 9 10 10 11 12 12 13
13 13 14 14 13 10 11 11 9 8 9 8 5 3 3 4 5 2 2 3 4 4 4 3 4 3 3 3 3 3 3 4 6 7 8 8 9 10 11 11 12 12 13
11 13 13 13 13 10 11 11 10 9 7 7 6 3 2 2 3 4 3 3 2 3 3 4 4 3 3 3 3 2 3 3 5 6 7 8 9 10 11 11 12 13 13
9 12 13 12 12 11 12 11 11 11 8 7 5 4 4 3 3 3 3 3 3 2 3 3 3 3 3 2 3 3 2 3 4 5 6 7 8 9 10 11 12 13 14
9 12 12 11 11 11 12 11 10 11 10 9 7 5 4 3 3 3 4 3 2 1 2 2 2 3 3 2 2 2 2 2 2 4 5 6 7 8 9 11 12 13 14
10 13 12 11 11 12 12 11 9 9 9 9 9 7 4 4 3 3 4 4 3 1 2 3 1 3 3 3 2 2 1 1 2 3 4 4 5 7 8 10 11 12 13
10 14 13 12 12 13 13 13 9 10 10 9 8 8 5 4 3 3 3 4 5 3 3 3 2 2 2 2 2 1 1 1 2 2 3 4 5 7 8 9 10 11 12
13 15 14 13 12 12 13 12 10 10 10 9 7 8 6 4 4 3 3 3 3 4 3 2 2 2 2 2 3 2 1 1 1 2 4 4 5 6 7 8 9 10 11
14 15 15 14 13 13 13 12 11 12 12 10 9 9 8 7 5 4 4 3 3 3 3 1 1 2 3 2 2 1 1 1 1 2 4 4 5 6 7 7 8 9 11
13 15 15 14 14 13 13 14 14 13 13 12 11 10 9 7 7 5 4 4 3 3 4 3 1 1 2 2 1 1 0 0 0 2 3 4 5 6 6 7 8 9 10
12 14 15 15 14 14 14 13 13 13 12 11 11 11 10 9 8 6 6 5 4 3 3 3 2 1 1 1 1 1 1 1 1 2 2 4 5 6 6 7 7 8 9
12 13 14 14 13 13 13 12 12 12 11 10 10 10 10 10 10 9 7 6 5 4 4 3 2 2 1 1 1 0 1 1 2 1 3 4 4 5 6 7 7 8 10
11 11 12 13 13 12 11 12 11 12 12 10 9 9 9 10 10 9 7 7 7 5 4 3 3 2 2 1 1 1 1 1 1 1 2 2 2 2 3 5 6 8 10
10 10 11 12 12 10 14 16 12 11 11 12 11 9 9 11 11 11 11 10 9 8 6 5 3 3 3 2 2 1 1 1 1 1 2 3 1 2 2 2 5 8 9
9 10 11 12 12 12 16 17 16 11 11 11 11 10 7 8 11 9 10 10 7 7 8 6 5 4 4 3 3 2 1 1 1 1 1 2 2 2 3 4 8 8 10
8 8 10 11 11 12 17 17 16 11 9 10 10 11 10 10 10 11 9 8 6 4 5 4 5 4 3 3 3 3 2 1 1 1 2 1 2 3 4 3 6 8 11
7 8 9 11 11 12 17 18 16 9 8 9 9 9 10 10 15 16 12 10 8 5 7 10 9 8 8 7 6 4 3 2 1 1 2 1 2 3 3 2 4 9 11
6 7 8 9 11 11 16 19 17 9 9 8 8 9 12 13 17 17 12 11 10 7 7 7 7 7 6 6 7 4 3 2 1 0 1 1 1 3 4 3 3 4 5
Wind_Direction
157 159 157 156 156 152 158 164 163 150 150 155 153 143 135 123 117 112 115 117 123 125 125 126 124 120 112 104 96 88 80 72 63 55 45 36 29 22 16 13 8 4 0
161 162 157 157 156 156 161 164 155 151 148 143 144 139 135 126 122 124 126 118 122 128 131 131 131 130 124 116 105 95 84 70 55 46 33 23 15 8 5 2 359 356 354
162 161 158 157 157 158 159 159 145 145 138 137 140 139 132 128 128 132 136 133 129 127 132 139 140 138 133 124 116 105 87 61 39 24 12 4 358 354 351 351 349 347 345
163 158 155 156 156 156 157 154 148 141 138 140 135 129 118 120 128 134 138 143 146 142 139 143 150 153 149 146 139 121 85 24 357 349 346 343 341 340 339 339 339 337 336
165 158 155 154 155 155 156 155 149 145 145 141 133 125 121 123 135 139 145 151 150 144 143 149 150 156 166 179 186 207 264 298 307 318 325 328 330 331 330 329 329 329 330
165 158 154 155 155 155 154 153 150 146 145 142 134 122 125 129 138 149 155 147 149 154 154 157 154 171 185 194 212 246 270 282 295 307 314 320 323 324 325 325 326 326 326
166 159 156 156 158 159 159 156 150 148 145 136 120 109 82 128 158 165 159 154 166 166 159 163 168 164 180 199 220 247 270 282 290 300 307 311 315 317 320 321 322 322 323
165 163 159 160 161 159 161 161 153 146 151 146 141 133 129 212 256 191 169 169 176 165 171 178 173 168 164 162 208 237 269 282 288 296 303 307 311 313 316 318 320 321 321
168 165 164 160 164 163 166 165 162 155 156 160 164 156 153 180 184 216 195 179 181 179 183 181 179 179 172 165 174 218 252 278 290 297 302 305 308 310 313 317 319 320 320
169 165 167 164 166 167 166 167 164 159 157 166 185 200 165 146 145 159 218 203 194 191 187 184 180 182 177 172 173 183 224 265 286 295 302 307 311 313 316 320 322 323 324
171 169 168 167 169 169 168 167 165 164 164 168 172 170 163 121 138 140 174 201 208 208 191 183 175 178 180 172 166 181 213 257 280 294 304 310 315 318 321 324 326 326 325
172 173 170 170 171 169 170 169 167 169 170 170 169 163 160 158 177 158 159 173 190 213 195 184 176 174 171 166 167 175 211 251 278 293 309 317 319 321 324 327 328 328 328
172 176 173 173 174 171 170 168 168 171 172 172 173 174 175 180 170 157 143 159 158 178 181 198 183 164 157 140 142 157 207 244 279 301 315 321 325 326 327 328 328 328 329
173 175 175 175 176 173 172 170 169 172 172 174 177 174 176 183 170 160 153 147 144 172 188 198 163 151 140 135 142 154 189 246 289 305 317 324 329 327 326 326 327 328 329
171 173 176 176 177 176 174 173 175 173 174 177 177 178 177 177 166 161 148 148 150 170 211 191 159 144 137 133 141 150 161 245 278 308 319 323 327 326 325 327 329 331 332
172 171 176 177 178 178 176 175 174 174 175 176 174 177 177 171 166 159 153 151 149 157 186 184 152 146 140 140 137 137 170 245 261 308 317 321 323 327 329 329 331 333 336
176 175 176 177 179 180 178 178 178 175 177 176 175 178 180 170 165 165 157 158 161 149 170 173 108 113 117 125 116 129 150 178 254 303 312 317 324 330 333 338 337 336 337
180 177 175 178 181 182 181 181 180 178 178 178 177 176 178 170 167 167 164 170 170 162 156 170 146 118 125 138 134 136 340 235 255 300 310 318 327 332 334 337 338 339 341
180 179 178 180 182 183 182 182 180 179 178 176 176 177 175 170 173 169 167 171 170 157 145 149 157 128 111 114 101 44 336 321 300 298 322 326 323 325 325 336 341 342 343
182 183 181 181 182 181 181 179 177 176 174 174 175 176 174 175 176 171 172 172 161 153 142 139 143 135 123 113 107 90 318 309 310 351 349 332 325 331 331 335 338 340 340
180 181 181 179 179 179 181 175 174 173 171 169 168 168 167 166 170 170 168 167 160 155 147 147 151 141 145 142 180 176 274 315 323 9 338 316 316 318 323 328 332 336 339
179 177 180 178 177 179 175 173 170 172 169 167 166 163 161 161 162 159 154 153 157 162 166 161 162 167 180 174 154 144 130 32 291 332 346 305 322 314 307 301 323 334 336
177 179 179 177 178 174 168 170 169 166 167 167 165 162 158 159 152 148 140 132 132 141 153 157 157 173 168 175 153 146 155 180 238 290 360 299 314 314 317 325 330 338 342
179 183 179 177 174 171 166 166 163 160 162 164 165 163 159 156 157 148 140 130 120 115 130 130 138 140 133 134 144 152 153 105 24 359 40 312 310 311 320 314 328 344 342
180 182 178 174 172 169 166 164 161 160 157 159 159 158 158 159 156 146 142 139 127 110 96 105 104 104 103 104 108 105 98 80 26 342 22 15 320 322 314 306 324 336 337
181 178 173 173 170 168 168 165 163 161 156 153 149 153 158 158 157 153 153 151 149 147 133 114 99 91 87 90 90 103 129 117 98 292 357 19 344 348 323 306 316 320 327